| time (UTC) | temp F | wind direction | speed MPH | gust MPH | rain 1hr in | rain 24hr in | rain mn in | humidity % | barometer mb |
| 20260508205835 | 65 | 215 | 1.0 | 2.0 | 0.00 | 0.00 | 0.00 | 45 | 1007.7 |
| 20260508205332 | 65 | 306 | 5.0 | 7.0 | 0.00 | 0.00 | 0.00 | 47 | 1007.4 |
| 20260508204828 | 66 | 210 | 4.0 | 7.0 | 0.00 | 0.00 | 0.00 | 45 | 1007.4 |
| 20260508204325 | 68 | 217 | 1.0 | 2.0 | 0.00 | 0.00 | 0.00 | 45 | 1007.7 |
| 20260508203821 | 67 | 185 | 2.0 | 3.0 | 0.00 | 0.00 | 0.00 | 43 | 1007.4 |
| 20260508203318 | 66 | 240 | 1.0 | 2.0 | 0.00 | 0.00 | 0.00 | 43 | 1007.7 |
| 20260508202813 | 66 | 194 | 3.0 | 6.0 | 0.00 | 0.00 | 0.00 | 43 | 1007.7 |
| 20260508202311 | 67 | 191 | 4.0 | 8.0 | 0.00 | 0.00 | 0.00 | 41 | 1008.1 |
| 20260508201808 | 67 | 189 | 4.0 | 7.0 | 0.00 | 0.00 | 0.00 | 41 | 1007.7 |
| 20260508201305 | 66 | 261 | 2.0 | 3.0 | 0.00 | 0.00 | 0.00 | 41 | 1008.1 |
| 20260508200801 | 67 | 238 | 3.0 | 3.0 | 0.00 | 0.00 | 0.00 | 40 | 1008.4 |
| 20260508200257 | 67 | 273 | 2.0 | 4.0 | 0.00 | 0.00 | 0.00 | 42 | 1008.4 |
| 20260508195754 | 67 | 209 | 2.0 | 2.0 | 0.00 | 0.00 | 0.00 | 39 | 1008.1 |
| 20260508195250 | 64 | 210 | 2.0 | 3.0 | 0.00 | 0.00 | 0.00 | 42 | 1008.4 |
| 20260508194747 | 65 | 161 | 4.0 | 6.0 | 0.00 | 0.00 | 0.00 | 40 | 1008.8 |
| 20260508194244 | 66 | 273 | 5.0 | 7.0 | 0.00 | 0.00 | 0.00 | 41 | 1008.4 |
| 20260508193741 | 65 | 213 | 1.0 | 2.0 | 0.00 | 0.00 | 0.00 | 43 | 1008.8 |
| 20260508193238 | 65 | 224 | 3.0 | 3.0 | 0.00 | 0.00 | 0.00 | 40 | 1008.8 |
| 20260508192734 | 65 | 288 | 4.0 | 7.0 | 0.00 | 0.00 | 0.00 | 41 | 1008.8 |
| 20260508192231 | 65 | 187 | 1.0 | 1.0 | 0.00 | 0.00 | 0.00 | 43 | 1008.8 |
| 20260508191729 | 65 | 275 | 3.0 | 3.0 | 0.00 | 0.00 | 0.00 | 42 | 1009.1 |
| 20260508191225 | 65 | 180 | 0.0 | 1.0 | 0.00 | 0.00 | 0.00 | 42 | 1009.4 |
| 20260508190723 | 65 | 248 | 4.0 | 4.0 | 0.00 | 0.00 | 0.00 | 42 | 1009.1 |
| 20260508190218 | 65 | 183 | 1.0 | 1.0 | 0.00 | 0.00 | 0.00 | 43 | 1009.1 |
| 20260508185715 | 65 | 218 | 3.0 | 6.0 | 0.00 | 0.00 | 0.00 | 42 | 1009.4 |
| 20260508185213 | 66 | 200 | 1.0 | 2.0 | 0.00 | 0.00 | 0.00 | 42 | 1009.4 |
| 20260508184710 | 66 | 222 | 3.0 | 3.0 | 0.00 | 0.00 | 0.00 | 43 | 1009.4 |
| 20260508184207 | 64 | 155 | 0.0 | 1.0 | 0.00 | 0.00 | 0.00 | 43 | 1009.8 |
| 20260508183704 | 64 | 282 | 3.0 | 4.0 | 0.00 | 0.00 | 0.00 | 44 | 1009.4 |
| 20260508183200 | 66 | 262 | 3.0 | 4.0 | 0.00 | 0.00 | 0.00 | 42 | 1009.8 |
| 20260508182656 | 65 | 186 | 0.0 | 0.0 | 0.00 | 0.00 | 0.00 | 39 | 1009.4 |
| 20260508182153 | 65 | 182 | 3.0 | 3.0 | 0.00 | 0.00 | 0.00 | 39 | 1009.4 |
| 20260508181649 | 65 | 169 | 0.0 | 1.0 | 0.00 | 0.00 | 0.00 | 38 | 1009.8 |
| 20260508181146 | 65 | 233 | 1.0 | 2.0 | 0.00 | 0.00 | 0.00 | 38 | 1009.4 |
| 20260508180642 | 63 | 182 | 1.0 | 2.0 | 0.00 | 0.00 | 0.00 | 40 | 1009.8 |
| 20260508180139 | 63 | 264 | 3.0 | 3.0 | 0.00 | 0.00 | 0.00 | 42 | 1009.8 |
| 20260508175636 | 64 | 261 | 4.0 | 6.0 | 0.00 | 0.00 | 0.00 | 40 | 1009.8 |
| 20260508175132 | 64 | 231 | 1.0 | 2.0 | 0.00 | 0.00 | 0.00 | 41 | 1010.1 |
| 20260508174630 | 65 | 186 | 1.0 | 1.0 | 0.00 | 0.00 | 0.00 | 41 | 1010.1 |
| 20260508174127 | 64 | 180 | 0.0 | 0.0 | 0.00 | 0.00 | 0.00 | 42 | 1010.5 |
| 20260508173624 | 63 | 290 | 2.0 | 3.0 | 0.00 | 0.00 | 0.00 | 43 | 1010.5 |
| 20260508173120 | 63 | 272 | 3.0 | 3.0 | 0.00 | 0.00 | 0.00 | 42 | 1010.5 |
| 20260508172617 | 62 | 161 | 0.0 | 0.0 | 0.00 | 0.00 | 0.00 | 46 | 1010.5 |
| 20260508172113 | 62 | 183 | 2.0 | 2.0 | 0.00 | 0.00 | 0.00 | 45 | 1010.9 |
| 20260508171610 | 62 | 183 | 0.0 | 1.0 | 0.00 | 0.00 | 0.00 | 44 | 1010.5 |
| 20260508171107 | 62 | 232 | 3.0 | 4.0 | 0.00 | 0.00 | 0.00 | 46 | 1010.9 |
| 20260508170604 | 62 | 193 | 4.0 | 4.0 | 0.00 | 0.00 | 0.00 | 44 | 1010.9 |
| 20260508165558 | 62 | 189 | 1.0 | 2.0 | 0.00 | 0.00 | 0.00 | 45 | 1011.2 |
| 20260508165055 | 61 | 180 | 1.0 | 1.0 | 0.00 | 0.00 | 0.00 | 46 | 1011.2 |
| 20260508164551 | 61 | 85 | 1.0 | 1.0 | 0.00 | 0.00 | 0.00 | 45 | 1011.2 |
| 20260508164048 | 61 | 269 | 5.0 | 6.0 | 0.00 | 0.00 | 0.00 | 46 | 1011.2 |
| 20260508163546 | 60 | 189 | 2.0 | 3.0 | 0.00 | 0.00 | 0.00 | 46 | 1011.6 |
| 20260508163042 | 59 | 188 | 0.0 | 1.0 | 0.00 | 0.00 | 0.00 | 47 | 1011.6 |
| 20260508162539 | 60 | 127 | 2.0 | 2.0 | 0.00 | 0.00 | 0.00 | 45 | 1011.6 |
| 20260508162037 | 60 | 180 | 1.0 | 1.0 | 0.00 | 0.00 | 0.00 | 50 | 1011.6 |
| 20260508161533 | 60 | 226 | 1.0 | 2.0 | 0.00 | 0.00 | 0.00 | 49 | 1011.9 |
| 20260508161030 | 60 | 56 | 2.0 | 3.0 | 0.00 | 0.00 | 0.00 | 48 | 1011.6 |
| 20260508160529 | 59 | 220 | 3.0 | 3.0 | 0.00 | 0.00 | 0.00 | 47 | 1011.9 |
| 20260508160026 | 60 | 5 | 2.0 | 3.0 | 0.00 | 0.00 | 0.00 | 49 | 1011.6 |
| 20260508155522 | 59 | 207 | 2.0 | 2.0 | 0.00 | 0.00 | 0.00 | 48 | 1011.9 |
| 20260508155020 | 59 | 205 | 3.0 | 3.0 | 0.00 | 0.00 | 0.00 | 47 | 1011.9 |
| 20260508154517 | 58 | 198 | 2.0 | 2.0 | 0.00 | 0.00 | 0.00 | 51 | 1011.9 |
| 20260508154013 | 59 | 184 | 0.0 | 1.0 | 0.00 | 0.00 | 0.00 | 49 | 1011.9 |
| 20260508153510 | 59 | 182 | 0.0 | 0.0 | 0.00 | 0.00 | 0.00 | 53 | 1011.9 |
| 20260508153007 | 58 | 175 | 2.0 | 3.0 | 0.00 | 0.00 | 0.00 | 49 | 1011.9 |
| 20260508152504 | 58 | 229 | 2.0 | 3.0 | 0.00 | 0.00 | 0.00 | 50 | 1011.9 |
| 20260508151959 | 58 | 148 | 1.0 | 1.0 | 0.00 | 0.00 | 0.00 | 51 | 1011.9 |
| 20260508151456 | 57 | 196 | 1.0 | 2.0 | 0.00 | 0.00 | 0.00 | 51 | 1011.9 |
| 20260508150953 | 57 | 152 | 0.0 | 0.0 | 0.00 | 0.00 | 0.00 | 51 | 1012.3 |
| 20260508150450 | 56 | 116 | 1.0 | 1.0 | 0.00 | 0.00 | 0.00 | 52 | 1012.3 |
| 20260508145945 | 56 | 154 | 0.0 | 1.0 | 0.00 | 0.00 | 0.00 | 54 | 1012.3 |
| 20260508145442 | 57 | 194 | 5.0 | 6.0 | 0.00 | 0.00 | 0.00 | 54 | 1012.3 |
| 20260508144939 | 57 | 193 | 0.0 | 0.0 | 0.00 | 0.00 | 0.00 | 54 | 1012.3 |
| 20260508144436 | 56 | 180 | 1.0 | 1.0 | 0.00 | 0.00 | 0.00 | 51 | 1012.3 |
| 20260508143934 | 56 | 215 | 1.0 | 1.0 | 0.00 | 0.00 | 0.00 | 56 | 1012.6 |
| 20260508143431 | 55 | 176 | 0.0 | 0.0 | 0.00 | 0.00 | 0.00 | 54 | 1012.3 |
| 20260508142927 | 55 | 184 | 2.0 | 2.0 | 0.00 | 0.00 | 0.00 | 61 | 1012.6 |
| 20260508142425 | 55 | 163 | 0.0 | 0.0 | 0.00 | 0.00 | 0.00 | 61 | 1012.3 |
| 20260508141921 | 55 | 170 | 1.0 | 1.0 | 0.00 | 0.00 | 0.00 | 62 | 1012.6 |
| 20260508141418 | 55 | 165 | 0.0 | 0.0 | 0.00 | 0.00 | 0.00 | 63 | 1012.6 |
| 20260508140915 | 55 | 179 | 0.0 | 0.0 | 0.00 | 0.00 | 0.00 | 62 | 1012.6 |
| 20260508140412 | 55 | 152 | 0.0 | 0.0 | 0.00 | 0.00 | 0.00 | 65 | 1012.6 |
| 20260508135908 | 54 | 169 | 1.0 | 2.0 | 0.00 | 0.00 | 0.00 | 64 | 1012.6 |
| 20260508135405 | 54 | 162 | 0.0 | 1.0 | 0.00 | 0.00 | 0.00 | 65 | 1012.6 |
| 20260508134901 | 54 | 183 | 0.0 | 0.0 | 0.00 | 0.00 | 0.00 | 67 | 1012.6 |
| 20260508134358 | 53 | 202 | 0.0 | 1.0 | 0.00 | 0.00 | 0.00 | 67 | 1012.6 |
| 20260508133854 | 52 | 173 | 0.0 | 0.0 | 0.00 | 0.00 | 0.00 | 70 | 1012.6 |
| 20260508133352 | 52 | 224 | 0.0 | 0.0 | 0.00 | 0.00 | 0.00 | 71 | 1012.6 |
| 20260508132849 | 51 | 192 | 0.0 | 0.0 | 0.00 | 0.00 | 0.00 | 72 | 1012.9 |
| 20260508132347 | 51 | 193 | 0.0 | 1.0 | 0.00 | 0.00 | 0.00 | 74 | 1012.6 |
| 20260508131843 | 51 | 190 | 0.0 | 0.0 | 0.00 | 0.00 | 0.00 | 74 | 1012.6 |
| 20260508131339 | 51 | 192 | 0.0 | 0.0 | 0.00 | 0.00 | 0.00 | 74 | 1012.6 |
| 20260508130836 | 51 | 191 | 0.0 | 0.0 | 0.00 | 0.00 | 0.00 | 74 | 1012.6 |
| 20260508130332 | 51 | 176 | 0.0 | 0.0 | 0.00 | 0.00 | 0.00 | 75 | 1012.6 |
| 20260508125829 | 51 | 189 | 1.0 | 1.0 | 0.00 | 0.00 | 0.00 | 76 | 1012.6 |
| 20260508125325 | 51 | 195 | 1.0 | 1.0 | 0.00 | 0.00 | 0.00 | 75 | 1012.9 |
| 20260508124823 | 51 | 180 | 0.0 | 0.0 | 0.00 | 0.00 | 0.00 | 76 | 1012.6 |
| 20260508124320 | 50 | 182 | 0.0 | 0.0 | 0.00 | 0.00 | 0.00 | 77 | 1012.6 |
| 20260508123818 | 49 | 190 | 0.0 | 0.0 | 0.00 | 0.00 | 0.00 | 78 | 1012.6 |
| 20260508123316 | 50 | 188 | 0.0 | 0.0 | 0.00 | 0.00 | 0.00 | 79 | 1012.6 |
| 20260508122812 | 49 | 183 | 0.0 | 0.0 | 0.00 | 0.00 | 0.00 | 79 | 1012.6 |
| 20260508122309 | 49 | 202 | 2.0 | 3.0 | 0.00 | 0.00 | 0.00 | 80 | 1012.6 |
| 20260508121806 | 49 | 191 | 0.0 | 0.0 | 0.00 | 0.00 | 0.00 | 79 | 1012.6 |
| 20260508121305 | 49 | 190 | 0.0 | 0.0 | 0.00 | 0.00 | 0.00 | 80 | 1012.6 |
| 20260508120802 | 47 | 190 | 0.0 | 0.0 | 0.00 | 0.00 | 0.00 | 85 | 1012.3 |
| 20260508120300 | 46 | 190 | 0.0 | 0.0 | 0.00 | 0.00 | 0.00 | 87 | 1012.3 |
| 20260508115757 | 45 | 190 | 0.0 | 0.0 | 0.00 | 0.00 | 0.00 | 90 | 1012.3 |
| 20260508115254 | 45 | 190 | 0.0 | 0.0 | 0.00 | 0.00 | 0.00 | 93 | 1012.3 |
| 20260508114750 | 44 | 190 | 0.0 | 0.0 | 0.00 | 0.00 | 0.00 | 94 | 1012.3 |
| 20260508114247 | 44 | 190 | 0.0 | 0.0 | 0.00 | 0.00 | 0.00 | 94 | 1012.3 |
| 20260508113744 | 43 | 190 | 0.0 | 0.0 | 0.00 | 0.00 | 0.00 | 94 | 1012.3 |
| 20260508113243 | 42 | 190 | 0.0 | 0.0 | 0.00 | 0.00 | 0.00 | 94 | 1011.9 |
| 20260508112738 | 42 | 190 | 0.0 | 0.0 | 0.00 | 0.00 | 0.00 | 94 | 1011.9 |
| 20260508112235 | 42 | 190 | 0.0 | 0.0 | 0.00 | 0.00 | 0.00 | 94 | 1012.3 |
| 20260508111731 | 41 | 190 | 0.0 | 0.0 | 0.00 | 0.00 | 0.00 | 94 | 1011.9 |
| 20260508111230 | 41 | 190 | 0.0 | 0.0 | 0.00 | 0.00 | 0.00 | 94 | 1011.6 |
| 20260508110726 | 41 | 190 | 0.0 | 0.0 | 0.00 | 0.00 | 0.00 | 94 | 1011.9 |
| 20260508110223 | 41 | 190 | 0.0 | 0.0 | 0.00 | 0.00 | 0.00 | 94 | 1011.9 |
| 20260508105718 | 40 | 190 | 0.0 | 0.0 | 0.00 | 0.00 | 0.00 | 94 | 1011.9 |
| 20260508105215 | 40 | 190 | 0.0 | 0.0 | 0.00 | 0.00 | 0.00 | 94 | 1011.6 |
| 20260508104712 | 40 | 190 | 0.0 | 0.0 | 0.00 | 0.00 | 0.00 | 93 | 1011.6 |
| 20260508104209 | 40 | 190 | 0.0 | 0.0 | 0.00 | 0.00 | 0.00 | 93 | 1011.9 |
| 20260508103706 | 40 | 190 | 0.0 | 0.0 | 0.00 | 0.00 | 0.00 | 93 | 1011.6 |
| 20260508103203 | 40 | 190 | 0.0 | 0.0 | 0.00 | 0.00 | 0.00 | 93 | 1011.6 |
| 20260508102700 | 40 | 190 | 0.0 | 0.0 | 0.00 | 0.00 | 0.00 | 93 | 1011.6 |
| 20260508102158 | 41 | 190 | 0.0 | 0.0 | 0.00 | 0.00 | 0.00 | 93 | 1011.6 |
| 20260508101655 | 41 | 190 | 0.0 | 0.0 | 0.00 | 0.00 | 0.00 | 92 | 1011.6 |
| 20260508101153 | 41 | 190 | 0.0 | 0.0 | 0.00 | 0.00 | 0.00 | 92 | 1011.6 |
| 20260508100650 | 41 | 190 | 0.0 | 0.0 | 0.00 | 0.00 | 0.00 | 92 | 1011.6 |
| 20260508100148 | 41 | 190 | 0.0 | 0.0 | 0.00 | 0.00 | 0.00 | 92 | 1011.2 |
| 20260508095644 | 41 | 190 | 0.0 | 0.0 | 0.00 | 0.00 | 0.00 | 92 | 1011.6 |
| 20260508095142 | 41 | 190 | 0.0 | 0.0 | 0.00 | 0.00 | 0.00 | 92 | 1011.6 |
| 20260508094638 | 41 | 190 | 0.0 | 0.0 | 0.00 | 0.00 | 0.00 | 91 | 1011.6 |
| 20260508094135 | 42 | 190 | 0.0 | 0.0 | 0.00 | 0.00 | 0.00 | 91 | 1011.6 |
| 20260508093633 | 42 | 190 | 0.0 | 0.0 | 0.00 | 0.00 | 0.00 | 91 | 1011.9 |
| 20260508093130 | 42 | 190 | 0.0 | 0.0 | 0.00 | 0.00 | 0.00 | 91 | 1011.9 |
| 20260508092627 | 42 | 190 | 0.0 | 0.0 | 0.00 | 0.00 | 0.00 | 91 | 1011.6 |
| 20260508092126 | 42 | 190 | 0.0 | 0.0 | 0.00 | 0.00 | 0.00 | 91 | 1011.2 |
| 20260508091622 | 42 | 190 | 0.0 | 0.0 | 0.00 | 0.00 | 0.00 | 90 | 1011.6 |
| 20260508091120 | 43 | 190 | 0.0 | 0.0 | 0.00 | 0.00 | 0.00 | 90 | 1011.6 |
| 20260508090618 | 43 | 190 | 0.0 | 0.0 | 0.00 | 0.00 | 0.00 | 89 | 1011.9 |
| 20260508090114 | 43 | 190 | 0.0 | 0.0 | 0.00 | 0.00 | 0.00 | 89 | 1011.6 |
| 20260508085610 | 43 | 190 | 0.0 | 0.0 | 0.00 | 0.00 | 0.00 | 89 | 1011.6 |
| 20260508085108 | 43 | 190 | 0.0 | 0.0 | 0.00 | 0.00 | 0.00 | 89 | 1011.6 |
| 20260508084604 | 43 | 190 | 0.0 | 0.0 | 0.00 | 0.00 | 0.00 | 88 | 1011.6 |
| 20260508084102 | 43 | 190 | 0.0 | 0.0 | 0.00 | 0.00 | 0.00 | 88 | 1011.6 |
| 20260508083559 | 44 | 190 | 0.0 | 0.0 | 0.00 | 0.00 | 0.00 | 88 | 1011.6 |
| 20260508083056 | 44 | 190 | 0.0 | 0.0 | 0.00 | 0.00 | 0.00 | 87 | 1011.9 |
| 20260508082551 | 44 | 190 | 0.0 | 0.0 | 0.00 | 0.00 | 0.00 | 87 | 1011.9 |
| 20260508082049 | 44 | 190 | 0.0 | 0.0 | 0.00 | 0.00 | 0.00 | 87 | 1011.9 |
| 20260508081547 | 44 | 190 | 0.0 | 0.0 | 0.00 | 0.00 | 0.00 | 86 | 1011.9 |
| 20260508081042 | 44 | 190 | 0.0 | 0.0 | 0.00 | 0.00 | 0.00 | 86 | 1011.9 |
| 20260508080540 | 45 | 190 | 0.0 | 0.0 | 0.00 | 0.00 | 0.00 | 85 | 1011.9 |
| 20260508080038 | 45 | 190 | 0.0 | 0.0 | 0.00 | 0.00 | 0.00 | 84 | 1011.6 |
| 20260508075534 | 46 | 190 | 0.0 | 0.0 | 0.00 | 0.00 | 0.00 | 83 | 1011.6 |
| 20260508075032 | 46 | 190 | 0.0 | 0.0 | 0.00 | 0.00 | 0.00 | 83 | 1011.6 |
| 20260508074529 | 46 | 190 | 0.0 | 0.0 | 0.00 | 0.00 | 0.00 | 83 | 1011.9 |
| 20260508074026 | 46 | 190 | 0.0 | 0.0 | 0.00 | 0.00 | 0.00 | 83 | 1012.3 |
| 20260508073523 | 45 | 190 | 0.0 | 0.0 | 0.00 | 0.00 | 0.00 | 85 | 1011.9 |
| 20260508073021 | 45 | 190 | 0.0 | 0.0 | 0.00 | 0.00 | 0.00 | 85 | 1012.3 |
| 20260508072516 | 45 | 190 | 0.0 | 0.0 | 0.00 | 0.00 | 0.00 | 85 | 1012.3 |
| 20260508072014 | 45 | 190 | 0.0 | 0.0 | 0.00 | 0.00 | 0.00 | 85 | 1012.3 |
| 20260508071511 | 45 | 190 | 0.0 | 0.0 | 0.00 | 0.00 | 0.00 | 85 | 1011.9 |
| 20260508071009 | 45 | 190 | 0.0 | 0.0 | 0.00 | 0.00 | 0.00 | 85 | 1011.9 |
| 20260508070506 | 45 | 190 | 0.0 | 0.0 | 0.00 | 0.00 | 0.00 | 85 | 1011.9 |
| 20260508070005 | 45 | 190 | 0.0 | 0.0 | 0.00 | 0.00 | 0.00 | 84 | 1011.9 |
| 20260508065502 | 45 | 190 | 0.0 | 0.0 | 0.00 | 0.00 | 0.00 | 84 | 1011.9 |
| 20260508065000 | 45 | 190 | 0.0 | 0.0 | 0.00 | 0.00 | 0.00 | 84 | 1011.9 |
| 20260508064457 | 45 | 190 | 0.0 | 0.0 | 0.00 | 0.00 | 0.00 | 84 | 1011.9 |
| 20260508063955 | 45 | 190 | 0.0 | 0.0 | 0.00 | 0.00 | 0.00 | 84 | 1012.3 |
| 20260508063452 | 45 | 190 | 0.0 | 0.0 | 0.00 | 0.00 | 0.00 | 84 | 1011.9 |
| 20260508062950 | 44 | 190 | 0.0 | 0.0 | 0.00 | 0.00 | 0.00 | 84 | 1011.9 |
| 20260508062447 | 45 | 190 | 0.0 | 0.0 | 0.00 | 0.00 | 0.00 | 84 | 1012.3 |
| 20260508061944 | 45 | 190 | 0.0 | 0.0 | 0.00 | 0.00 | 0.00 | 83 | 1011.9 |
| 20260508061442 | 45 | 190 | 0.0 | 0.0 | 0.00 | 0.00 | 0.00 | 83 | 1011.9 |
| 20260508060938 | 45 | 190 | 0.0 | 0.0 | 0.00 | 0.00 | 0.00 | 83 | 1011.9 |
| 20260508060435 | 45 | 190 | 0.0 | 0.0 | 0.00 | 0.00 | 0.00 | 82 | 1011.9 |
| 20260508055931 | 45 | 190 | 0.0 | 0.0 | 0.00 | 0.00 | 0.00 | 82 | 1011.9 |
| 20260508055428 | 45 | 190 | 0.0 | 0.0 | 0.00 | 0.00 | 0.00 | 81 | 1012.3 |
| 20260508054924 | 45 | 190 | 0.0 | 0.0 | 0.00 | 0.00 | 0.00 | 81 | 1012.3 |
| 20260508054422 | 46 | 190 | 0.0 | 0.0 | 0.00 | 0.00 | 0.00 | 81 | 1012.3 |
| 20260508053919 | 46 | 190 | 0.0 | 0.0 | 0.00 | 0.00 | 0.00 | 80 | 1012.3 |
| 20260508053415 | 46 | 190 | 0.0 | 0.0 | 0.00 | 0.00 | 0.00 | 80 | 1011.9 |
| 20260508052913 | 46 | 190 | 0.0 | 0.0 | 0.00 | 0.00 | 0.00 | 79 | 1012.3 |
| 20260508052411 | 46 | 190 | 0.0 | 0.0 | 0.00 | 0.00 | 0.00 | 78 | 1012.3 |
| 20260508051906 | 47 | 190 | 0.0 | 0.0 | 0.00 | 0.00 | 0.00 | 77 | 1012.6 |
| 20260508051403 | 47 | 190 | 0.0 | 0.0 | 0.00 | 0.00 | 0.00 | 77 | 1012.3 |
| 20260508050858 | 47 | 190 | 0.0 | 0.0 | 0.00 | 0.00 | 0.00 | 76 | 1011.9 |
| 20260508050356 | 48 | 190 | 0.0 | 0.0 | 0.00 | 0.00 | 0.00 | 75 | 1012.3 |
| 20260508045851 | 48 | 190 | 0.0 | 0.0 | 0.00 | 0.00 | 0.00 | 74 | 1012.3 |
| 20260508045350 | 48 | 190 | 0.0 | 0.0 | 0.00 | 0.00 | 0.00 | 73 | 1012.6 |
| 20260508044847 | 49 | 190 | 0.0 | 0.0 | 0.00 | 0.00 | 0.00 | 71 | 1011.9 |
| 20260508044343 | 50 | 190 | 0.0 | 0.0 | 0.00 | 0.00 | 0.00 | 70 | 1012.3 |
| 20260508043839 | 50 | 191 | 0.0 | 0.0 | 0.00 | 0.00 | 0.00 | 68 | 1012.3 |
| 20260508043337 | 50 | 193 | 0.0 | 0.0 | 0.00 | 0.00 | 0.00 | 68 | 1012.3 |
| 20260508042833 | 51 | 190 | 0.0 | 0.0 | 0.00 | 0.00 | 0.00 | 68 | 1012.3 |
| 20260508042331 | 51 | 190 | 0.0 | 0.0 | 0.00 | 0.00 | 0.00 | 67 | 1012.3 |
| 20260508041828 | 50 | 190 | 1.0 | 1.0 | 0.00 | 0.00 | 0.00 | 67 | 1012.3 |
| 20260508041324 | 50 | 190 | 0.0 | 0.0 | 0.00 | 0.00 | 0.00 | 66 | 1012.3 |
| 20260508040820 | 50 | 189 | 0.0 | 0.0 | 0.00 | 0.00 | 0.00 | 66 | 1012.3 |
| 20260508040318 | 50 | 189 | 0.0 | 0.0 | 0.00 | 0.00 | 0.00 | 65 | 1011.9 |
| 20260508035815 | 50 | 189 | 0.0 | 0.0 | 0.00 | 0.00 | 0.00 | 64 | 1011.9 |
| 20260508035313 | 51 | 188 | 0.0 | 0.0 | 0.00 | 0.00 | 0.00 | 64 | 1011.9 |
| 20260508034809 | 51 | 188 | 0.0 | 0.0 | 0.00 | 0.00 | 0.00 | 63 | 1012.3 |
| 20260508034306 | 51 | 189 | 0.0 | 0.0 | 0.00 | 0.00 | 0.00 | 62 | 1011.9 |
| 20260508033803 | 51 | 190 | 0.0 | 0.0 | 0.00 | 0.00 | 0.00 | 62 | 1011.9 |
| 20260508033302 | 51 | 190 | 0.0 | 0.0 | 0.00 | 0.00 | 0.00 | 61 | 1011.9 |
| 20260508032759 | 52 | 189 | 0.0 | 0.0 | 0.00 | 0.00 | 0.00 | 61 | 1012.3 |
| 20260508032256 | 52 | 188 | 0.0 | 0.0 | 0.00 | 0.00 | 0.00 | 60 | 1011.9 |
| 20260508031752 | 52 | 189 | 0.0 | 0.0 | 0.00 | 0.00 | 0.00 | 59 | 1012.3 |
| 20260508031249 | 52 | 189 | 0.0 | 0.0 | 0.00 | 0.00 | 0.00 | 60 | 1012.3 |
| 20260508030745 | 52 | 187 | 0.0 | 0.0 | 0.00 | 0.00 | 0.00 | 59 | 1012.6 |
| 20260508030243 | 52 | 187 | 0.0 | 0.0 | 0.00 | 0.00 | 0.00 | 59 | 1012.6 |
| 20260508025739 | 52 | 196 | 0.0 | 0.0 | 0.00 | 0.00 | 0.00 | 58 | 1012.6 |
| 20260508025236 | 52 | 186 | 0.0 | 0.0 | 0.00 | 0.00 | 0.00 | 58 | 1012.6 |
| 20260508024732 | 52 | 185 | 0.0 | 0.0 | 0.00 | 0.00 | 0.00 | 58 | 1012.6 |
| 20260508024229 | 53 | 189 | 0.0 | 0.0 | 0.00 | 0.00 | 0.00 | 58 | 1012.3 |
| 20260508023726 | 53 | 182 | 0.0 | 0.0 | 0.00 | 0.00 | 0.00 | 57 | 1012.6 |
| 20260508023224 | 53 | 204 | 1.0 | 2.0 | 0.00 | 0.00 | 0.00 | 57 | 1012.3 |
| 20260508022719 | 53 | 265 | 3.0 | 4.0 | 0.00 | 0.00 | 0.00 | 55 | 1012.6 |
| 20260508022216 | 53 | 206 | 2.0 | 2.0 | 0.00 | 0.00 | 0.00 | 55 | 1012.3 |
| 20260508021713 | 53 | 278 | 4.0 | 4.0 | 0.00 | 0.00 | 0.00 | 57 | 1012.3 |
| 20260508021208 | 53 | 194 | 2.0 | 2.0 | 0.00 | 0.00 | 0.00 | 54 | 1012.6 |
| 20260508020706 | 54 | 273 | 3.0 | 3.0 | 0.00 | 0.00 | 0.00 | 52 | 1012.6 |
| 20260508020203 | 54 | 200 | 1.0 | 1.0 | 0.00 | 0.00 | 0.00 | 52 | 1012.3 |
| 20260508015700 | 53 | 200 | 1.0 | 1.0 | 0.00 | 0.00 | 0.00 | 51 | 1012.3 |
| 20260508015157 | 53 | 259 | 2.0 | 3.0 | 0.00 | 0.00 | 0.00 | 53 | 1012.3 |
| 20260508014654 | 53 | 200 | 3.0 | 3.0 | 0.00 | 0.00 | 0.00 | 52 | 1012.3 |
| 20260508014150 | 53 | 187 | 0.0 | 0.0 | 0.00 | 0.00 | 0.00 | 54 | 1012.3 |
| 20260508013646 | 53 | 183 | 0.0 | 1.0 | 0.00 | 0.00 | 0.00 | 55 | 1012.3 |
| 20260508013143 | 53 | 183 | 0.0 | 1.0 | 0.00 | 0.00 | 0.00 | 53 | 1012.3 |
| 20260508012641 | 53 | 183 | 0.0 | 0.0 | 0.00 | 0.00 | 0.00 | 53 | 1011.9 |
| 20260508012137 | 52 | 182 | 0.0 | 0.0 | 0.00 | 0.00 | 0.00 | 52 | 1011.9 |
| 20260508011636 | 52 | 182 | 0.0 | 0.0 | 0.00 | 0.00 | 0.00 | 52 | 1011.9 |
| 20260508011133 | 53 | 182 | 0.0 | 0.0 | 0.00 | 0.00 | 0.00 | 51 | 1011.6 |
| 20260508010629 | 53 | 183 | 0.0 | 0.0 | 0.00 | 0.00 | 0.00 | 50 | 1011.2 |
| 20260508010128 | 53 | 188 | 0.0 | 0.0 | 0.00 | 0.00 | 0.00 | 50 | 1011.2 |
| 20260508005624 | 53 | 197 | 1.0 | 1.0 | 0.00 | 0.00 | 0.00 | 49 | 1011.2 |
| 20260508005120 | 54 | 182 | 0.0 | 0.0 | 0.00 | 0.00 | 0.00 | 49 | 1011.6 |
| 20260508004616 | 54 | 168 | 1.0 | 2.0 | 0.00 | 0.00 | 0.00 | 48 | 1011.9 |
| 20260508004113 | 54 | 227 | 2.0 | 2.0 | 0.00 | 0.00 | 0.00 | 47 | 1011.6 |
| 20260508003610 | 55 | 238 | 3.0 | 3.0 | 0.00 | 0.00 | 0.00 | 46 | 1011.2 |
| 20260508003108 | 55 | 241 | 4.0 | 6.0 | 0.00 | 0.00 | 0.00 | 45 | 1011.6 |
| 20260508002603 | 55 | 198 | 1.0 | 2.0 | 0.00 | 0.00 | 0.00 | 46 | 1011.2 |
| 20260508002101 | 55 | 289 | 4.0 | 6.0 | 0.00 | 0.00 | 0.00 | 46 | 1011.6 |
| 20260508001556 | 55 | 191 | 1.0 | 1.0 | 0.00 | 0.00 | 0.00 | 46 | 1011.2 |
| 20260508001053 | 55 | 211 | 1.0 | 2.0 | 0.00 | 0.00 | 0.00 | 46 | 1011.6 |
| 20260508000549 | 55 | 193 | 0.0 | 1.0 | 0.00 | 0.00 | 0.00 | 45 | 1011.2 |
| 20260508000047 | 55 | 180 | 1.0 | 2.0 | 0.00 | 0.00 | 0.00 | 46 | 1011.2 |
| 20260507235543 | 55 | 213 | 2.0 | 2.0 | 0.00 | 0.00 | 0.00 | 45 | 1011.2 |
| 20260507235041 | 56 | 302 | 4.0 | 6.0 | 0.00 | 0.00 | 0.00 | 45 | 1011.2 |
| 20260507234537 | 56 | 208 | 0.0 | 2.0 | 0.00 | 0.00 | 0.00 | 45 | 1011.2 |
| 20260507234033 | 55 | 193 | 1.0 | 1.0 | 0.00 | 0.00 | 0.00 | 44 | 1011.2 |
| 20260507233530 | 55 | 189 | 0.0 | 1.0 | 0.00 | 0.00 | 0.00 | 44 | 1011.2 |
| 20260507233029 | 55 | 185 | 1.0 | 1.0 | 0.00 | 0.00 | 0.00 | 45 | 1011.6 |
| 20260507232524 | 55 | 213 | 2.0 | 2.0 | 0.00 | 0.00 | 0.00 | 44 | 1011.2 |
| 20260507232022 | 56 | 182 | 0.0 | 0.0 | 0.00 | 0.00 | 0.00 | 44 | 1011.6 |
| 20260507231518 | 56 | 249 | 3.0 | 3.0 | 0.00 | 0.00 | 0.00 | 43 | 1011.2 |
| 20260507231016 | 56 | 216 | 2.0 | 3.0 | 0.00 | 0.00 | 0.00 | 42 | 1011.2 |
| 20260507230512 | 56 | 178 | 0.0 | 0.0 | 0.00 | 0.00 | 0.00 | 44 | 1011.2 |
| 20260507230009 | 56 | 236 | 2.0 | 2.0 | 0.00 | 0.00 | 0.00 | 43 | 1011.6 |
| 20260507225504 | 56 | 244 | 2.0 | 2.0 | 0.00 | 0.00 | 0.00 | 42 | 1011.2 |
| 20260507225000 | 57 | 216 | 2.0 | 2.0 | 0.00 | 0.00 | 0.00 | 41 | 1011.2 |
| 20260507224456 | 56 | 315 | 3.0 | 4.0 | 0.00 | 0.00 | 0.00 | 42 | 1011.6 |
| 20260507223953 | 56 | 44 | 3.0 | 4.0 | 0.00 | 0.00 | 0.00 | 42 | 1011.6 |
| 20260507223449 | 57 | 223 | 1.0 | 2.0 | 0.00 | 0.00 | 0.00 | 42 | 1011.2 |
| 20260507222946 | 57 | 207 | 2.0 | 4.0 | 0.00 | 0.00 | 0.00 | 41 | 1011.6 |
| 20260507222443 | 57 | 286 | 4.0 | 6.0 | 0.00 | 0.00 | 0.00 | 42 | 1011.6 |
| 20260507221940 | 57 | 185 | 1.0 | 1.0 | 0.00 | 0.00 | 0.00 | 43 | 1011.6 |
| 20260507221436 | 56 | 294 | 4.0 | 6.0 | 0.00 | 0.00 | 0.00 | 42 | 1012.3 |
| 20260507220933 | 56 | 198 | 2.0 | 3.0 | 0.00 | 0.00 | 0.00 | 42 | 1011.6 |
| 20260507220431 | 56 | 235 | 2.0 | 2.0 | 0.00 | 0.00 | 0.00 | 42 | 1011.9 |
| 20260507215927 | 57 | 127 | 2.0 | 3.0 | 0.00 | 0.00 | 0.00 | 42 | 1011.9 |
| 20260507215424 | 57 | 253 | 2.0 | 2.0 | 0.00 | 0.00 | 0.00 | 41 | 1011.6 |
| 20260507214921 | 57 | 177 | 3.0 | 4.0 | 0.00 | 0.00 | 0.00 | 41 | 1011.9 |
| 20260507214419 | 56 | 272 | 5.0 | 7.0 | 0.00 | 0.00 | 0.00 | 42 | 1011.6 |
| 20260507213914 | 56 | 142 | 1.0 | 2.0 | 0.00 | 0.00 | 0.00 | 41 | 1011.6 |
| 20260507213411 | 57 | 239 | 2.0 | 2.0 | 0.00 | 0.00 | 0.00 | 42 | 1011.6 |
| 20260507212908 | 57 | 183 | 2.0 | 3.0 | 0.00 | 0.00 | 0.00 | 41 | 1011.6 |
| 20260507212403 | 57 | 227 | 1.0 | 2.0 | 0.00 | 0.00 | 0.00 | 41 | 1011.6 |
| 20260507211900 | 57 | 290 | 4.0 | 4.0 | 0.00 | 0.00 | 0.00 | 41 | 1011.6 |
| 20260507211356 | 57 | 230 | 3.0 | 4.0 | 0.00 | 0.00 | 0.00 | 41 | 1011.6 |
| 20260507210854 | 57 | 206 | 2.0 | 3.0 | 0.00 | 0.00 | 0.00 | 41 | 1011.6 |
| 20260507210350 | 56 | 287 | 4.0 | 6.0 | 0.00 | 0.00 | 0.00 | 40 | 1011.6 |